EW5196 Weather Reports


time (UTC)temp
F
wind
direction
speed
knots
gust
knots
rain 1hr
in
rain 24hr
in
rain mn
in
humidity
%
barometer
mb
20260504023934 45 140 1.7 1.7 0.00 0.00 0.00 80 1018.1
20260504023431 46 145 1.7 1.7 0.00 0.00 0.00 80 1018.0
20260504022926 46 135 1.7 1.7 0.00 0.00 0.00 79 1018.1
20260504022423 46 138 1.7 1.7 0.00 0.00 0.00 79 1017.8
20260504021920 46 132 1.7 2.6 0.00 0.00 0.00 77 1018.0
20260504021417 46 137 1.7 1.7 0.00 0.00 0.00 78 1018.0
20260504020914 46 129 1.7 1.7 0.00 0.00 0.00 78 1017.9
20260504020411 47 136 1.7 1.7 0.00 0.00 0.00 78 1018.0
20260504015907 47 123 0.9 1.7 0.00 0.00 0.00 77 1017.7
20260504015403 47 136 1.7 1.7 0.00 0.00 0.00 76 1017.6
20260504014859 47 132 0.9 1.7 0.00 0.00 0.00 74 1017.7
20260504014355 48 136 1.7 1.7 0.00 0.00 0.00 74 1017.8
20260504013853 48 123 1.7 1.7 0.00 0.00 0.00 77 1017.6
20260504013351 48 129 0.9 1.7 0.00 0.00 0.00 75 1017.9
20260504012847 48 130 0.9 1.7 0.00 0.00 0.00 72 1017.8
20260504012345 49 132 1.7 1.7 0.00 0.00 0.00 73 1017.7
20260504011842 49 134 1.7 1.7 0.00 0.00 0.00 74 1017.7
20260504011339 49 134 1.7 1.7 0.00 0.00 0.00 71 1017.8
20260504010835 50 137 1.7 2.6 0.00 0.00 0.00 71 1017.4
20260504010330 50 129 1.7 1.7 0.00 0.00 0.00 71 1017.6
20260504005827 50 130 1.7 2.6 0.00 0.00 0.00 71 1017.8
20260504005324 51 145 1.7 1.7 0.00 0.00 0.00 71 1017.6
20260504004822 51 134 1.7 1.7 0.00 0.00 0.00 70 1017.5
20260504004319 52 134 0.9 1.7 0.00 0.00 0.00 67 1017.5
20260504003815 52 143 1.7 1.7 0.00 0.00 0.00 66 1017.4
20260504003313 53 141 1.7 1.7 0.00 0.00 0.00 67 1017.5
20260504002809 53 137 0.9 1.7 0.00 0.00 0.00 62 1017.4
20260504002306 54 140 1.7 1.7 0.00 0.00 0.00 58 1017.5
20260504001804 54 148 0.9 1.7 0.00 0.00 0.00 61 1017.3
20260504001301 55 142 1.7 1.7 0.00 0.00 0.00 55 1017.3
20260504000757 55 144 1.7 1.7 0.00 0.00 0.00 49 1017.3
20260504000254 56 140 1.7 1.7 0.00 0.00 0.00 59 1017.1
20260503235752 57 139 1.7 2.6 0.00 0.00 0.00 55 1017.0
20260503235249 58 139 0.9 1.7 0.00 0.00 0.00 48 1017.0
20260503234747 58 135 1.7 1.7 0.00 0.00 0.00 44 1017.1
20260503234244 59 136 0.9 1.7 0.00 0.00 0.00 47 1017.0
20260503233736 59 134 0.9 1.7 0.00 0.00 0.00 43 1016.9
20260503233232 60 141 1.7 1.7 0.00 0.00 0.00 39 1017.1
20260503232729 60 137 1.7 1.7 0.00 0.00 0.00 38 1016.9
20260503232226 61 138 1.7 1.7 0.00 0.00 0.00 42 1017.1
20260503231724 61 138 1.7 1.7 0.00 0.00 0.00 36 1017.0
20260503231220 61 137 1.7 1.7 0.00 0.00 0.00 33 1017.1
20260503230717 62 134 1.7 1.7 0.00 0.00 0.00 34 1016.9
20260503230214 62 135 1.7 2.6 0.00 0.00 0.00 33 1016.9
20260503225711 62 161 1.7 2.6 0.00 0.00 0.00 33 1016.9
20260503225211 63 139 1.7 1.7 0.00 0.00 0.00 32 1016.8
20260503224709 63 140 2.6 2.6 0.00 0.00 0.00 31 1017.0
20260503224207 63 144 1.7 1.7 0.00 0.00 0.00 31 1017.0
20260503223704 64 148 0.9 3.5 0.00 0.00 0.00 28 1017.0
20260503223201 64 170 1.7 2.6 0.00 0.00 0.00 28 1017.0
20260503222658 64 164 1.7 4.3 0.00 0.00 0.00 28 1016.9
20260503222155 65 165 1.7 2.6 0.00 0.00 0.00 28 1017.2
20260503221654 65 146 0.9 2.6 0.00 0.00 0.00 26 1017.0
20260503221151 66 137 3.5 4.3 0.00 0.00 0.00 26 1017.2
20260503220648 66 134 1.7 3.5 0.00 0.00 0.00 26 1017.0
20260503220144 65 154 1.7 2.6 0.00 0.00 0.00 29 1017.3
20260503215641 64 153 2.6 4.3 0.00 0.00 0.00 28 1017.0
20260503215137 64 142 1.7 1.7 0.00 0.00 0.00 29 1017.3
20260503214637 64 138 1.7 2.6 0.00 0.00 0.00 28 1017.3
20260503214132 64 124 2.6 4.3 0.00 0.00 0.00 27 1017.2
20260503213626 64 163 2.6 4.3 0.00 0.00 0.00 27 1017.2
20260503213121 64 129 1.7 2.6 0.00 0.00 0.00 28 1017.2
20260503212620 64 118 1.7 5.2 0.00 0.00 0.00 27 1017.2
20260503212117 64 145 3.5 4.3 0.00 0.00 0.00 27 1017.4
20260503211615 64 180 3.5 4.3 0.00 0.00 0.00 25 1017.3
20260503211110 63 201 1.7 2.6 0.00 0.00 0.00 26 1017.3
20260503210606 63 142 2.6 5.2 0.00 0.00 0.00 26 1017.2
20260503205559 64 112 1.7 2.6 0.00 0.00 0.00 25 1017.2
20260503205055 64 209 2.6 4.3 0.00 0.00 0.00 24 1017.2
20260503204553 64 156 1.7 4.3 0.00 0.00 0.00 26 1017.3
20260503204050 64 139 1.7 5.2 0.00 0.00 0.00 29 1017.0
20260503203547 63 109 2.6 2.6 0.00 0.00 0.00 28 1016.9
20260503203044 63 131 0.9 2.6 0.00 0.00 0.00 30 1017.1
20260503202542 63 175 1.7 4.3 0.00 0.00 0.00 26 1017.2
20260503202039 64 131 1.7 3.5 0.00 0.00 0.00 26 1017.3
20260503201537 64 78 1.7 4.3 0.00 0.00 0.00 26 1017.2
20260503201034 64 166 2.6 5.2 0.00 0.00 0.00 26 1017.6
20260503200530 64 220 2.6 4.3 0.00 0.00 0.00 26 1017.5
20260503200027 64 149 2.6 3.5 0.00 0.00 0.00 25 1017.7
20260503195524 64 129 1.7 3.5 0.00 0.00 0.00 28 1017.8
20260503195021 65 188 2.6 5.2 0.00 0.00 0.00 26 1018.0
20260503194519 65 176 1.7 3.5 0.00 0.00 0.00 27 1017.8
20260503194018 66 158 1.7 4.3 0.00 0.00 0.00 25 1018.0
20260503193515 65 183 3.5 5.2 0.00 0.00 0.00 26 1018.0
20260503193010 64 223 4.3 6.1 0.00 0.00 0.00 25 1018.0
20260503192506 64 153 3.5 4.3 0.00 0.00 0.00 29 1018.1
20260503192002 64 79 2.6 2.6 0.00 0.00 0.00 30 1018.1
20260503191459 64 174 1.7 4.3 0.00 0.00 0.00 26 1018.3
20260503190955 64 131 4.3 4.3 0.00 0.00 0.00 27 1018.4
20260503190453 64 183 4.3 4.3 0.00 0.00 0.00 27 1018.4
20260503185950 64 78 1.7 7.0 0.00 0.00 0.00 26 1018.2
20260503185446 64 137 3.5 4.3 0.00 0.00 0.00 28 1018.5
20260503184946 63 230 4.3 5.2 0.00 0.00 0.00 29 1018.7
20260503184443 63 117 5.2 6.1 0.00 0.00 0.00 28 1018.4
20260503183939 62 146 2.6 9.6 0.00 0.00 0.00 28 1018.5
20260503183435 62 144 4.3 4.3 0.00 0.00 0.00 27 1018.6
20260503182933 62 126 3.5 6.1 0.00 0.00 0.00 28 1018.9
20260503182431 62 122 1.7 3.5 0.00 0.00 0.00 30 1018.8
20260503181929 61 172 1.7 2.6 0.00 0.00 0.00 30 1018.6
20260503181426 61 136 4.3 6.1 0.00 0.00 0.00 29 1018.9
20260503180921 61 151 1.7 4.3 0.00 0.00 0.00 30 1019.0
20260503180420 62 114 3.5 5.2 0.00 0.00 0.00 31 1018.8
20260503175916 61 118 2.6 4.3 0.00 0.00 0.00 32 1018.8
20260503175414 60 88 3.5 4.3 0.00 0.00 0.00 33 1018.8
20260503174910 61 114 3.5 7.0 0.00 0.00 0.00 31 1018.8
20260503174408 60 178 2.6 4.3 0.00 0.00 0.00 31 1018.8
20260503173903 60 163 2.6 4.3 0.00 0.00 0.00 30 1019.1
20260503173359 59 186 6.1 6.1 0.00 0.00 0.00 30 1018.9
20260503172856 60 246 1.7 5.2 0.00 0.00 0.00 28 1019.1
20260503172353 59 191 1.7 3.5 0.00 0.00 0.00 31 1018.9
20260503171849 59 123 3.5 4.3 0.00 0.00 0.00 32 1018.9
20260503171346 59 49 4.3 4.3 0.00 0.00 0.00 30 1018.9
20260503170844 59 131 4.3 5.2 0.00 0.00 0.00 31 1019.0
20260503170340 58 60 2.6 3.5 0.00 0.00 0.00 32 1019.0
20260503150732 55 161 2.6 3.5 0.00 0.00 0.00 34 1020.3
20260503150229 55 129 2.6 3.5 0.00 0.00 0.00 35 1020.5
20260503140153 53 139 6.1 7.8 0.00 0.00 0.00 33 1020.3
20260503131122 51 165 4.3 9.6 0.00 0.00 0.00 42 1020.2
20260503130620 50 240 3.5 7.8 0.00 0.00 0.00 44 1020.0
20260503130118 50 144 5.2 5.2 0.00 0.00 0.00 45 1020.2
20260503110510 39 123 1.7 3.5 0.00 0.00 0.00 88 1019.1
20260503090350 45 154 1.7 2.6 0.00 0.00 0.00 67 1017.3
20260503081317 48 159 1.7 4.3 0.00 0.00 0.00 56 1016.8
20260503080813 48 155 2.6 4.3 0.00 0.00 0.00 55 1016.7
20260503080311 49 141 0.9 3.5 0.00 0.00 0.00 55 1016.7
20260503072747 50 180 0.9 2.6 0.00 0.00 0.00 54 1016.4
20260503072244 50 178 2.6 3.5 0.00 0.00 0.00 53 1016.4
20260503071740 50 130 1.7 2.6 0.00 0.00 0.00 53 1016.2
20260503071238 50 140 1.7 4.3 0.00 0.00 0.00 52 1016.1
20260503070734 50 137 2.6 3.5 0.00 0.00 0.00 52 1016.1
20260503070232 50 134 1.7 6.1 0.00 0.00 0.00 52 1016.0
20260503060151 52 107 2.6 6.1 0.00 0.00 0.00 52 1015.5
20260503054638 52 145 0.9 3.5 0.00 0.00 0.00 54 1015.1
20260503054135 52 175 2.6 5.2 0.00 0.00 0.00 52 1015.5
20260503053633 52 171 2.6 4.3 0.00 0.00 0.00 53 1015.4
20260503053132 52 175 3.5 3.5 0.00 0.00 0.00 53 1015.5
20260503052627 52 140 1.7 2.6 0.00 0.00 0.00 55 1015.7
20260503052124 52 171 1.7 2.6 0.00 0.00 0.00 54 1015.6
20260503051619 52 167 1.7 4.3 0.00 0.00 0.00 55 1015.6
20260503051117 52 91 0.9 4.3 0.00 0.00 0.00 57 1015.5
20260503050614 52 155 1.7 3.5 0.00 0.00 0.00 58 1015.5
20260503050110 51 166 1.7 2.6 0.00 0.00 0.00 60 1015.4
20260503045608 51 161 2.6 3.5 0.00 0.00 0.00 64 1015.5
20260503045105 51 115 2.6 2.6 0.00 0.00 0.00 60 1015.4
20260503044601 51 142 1.7 2.6 0.00 0.00 0.00 65 1015.6
20260503044059 51 166 2.6 4.3 0.00 0.00 0.00 65 1015.3
20260503043555 51 139 2.6 2.6 0.00 0.00 0.00 69 1015.3
20260503043052 51 161 2.6 2.6 0.00 0.00 0.00 72 1015.3
20260503042549 50 137 1.7 2.6 0.00 0.00 0.00 74 1015.3
20260503042045 50 134 1.7 3.5 0.00 0.00 0.00 78 1015.1
20260503041542 50 161 1.7 1.7 0.00 0.00 0.00 79 1015.3
20260503041040 50 150 1.7 2.6 0.00 0.00 0.00 77 1015.2
20260503040537 50 142 1.7 1.7 0.00 0.00 0.00 79 1015.3
20260503040034 50 152 1.7 1.7 0.00 0.04 0.04 78 1015.1
20260503035531 50 144 1.7 2.6 0.00 0.04 0.04 81 1015.2
20260503035028 51 139 2.6 3.5 0.00 0.04 0.04 80 1015.1
20260503034525 50 116 1.7 1.7 0.00 0.04 0.04 77 1015.5
20260503034022 50 146 1.7 1.7 0.00 0.04 0.04 80 1015.3
20260503033520 50 145 1.7 2.6 0.00 0.04 0.04 80 1015.3
20260503033018 51 145 1.7 1.7 0.00 0.04 0.04 80 1015.3
20260503032516 51 137 1.7 2.6 0.00 0.04 0.04 80 1015.1
20260503032014 51 151 1.7 2.6 0.00 0.04 0.04 81 1015.4
20260503031511 51 142 1.7 2.6 0.00 0.04 0.04 79 1015.1
20260503031008 51 155 1.7 1.7 0.00 0.04 0.04 80 1015.2
20260503030504 51 138 1.7 2.6 0.00 0.04 0.04 81 1015.2
20260503030001 51 124 1.7 1.7 0.00 0.04 0.04 83 1015.1
20260503025458 51 134 1.7 1.7 0.00 0.04 0.04 81 1015.1
20260503024956 52 143 1.7 2.6 0.00 0.04 0.04 80 1015.1
20260503024451 52 139 1.7 1.7 0.00 0.04 0.04 75 1015.3